This is the latest recevied weather packets stored in our database for station/object KD7MPG-3. If no packets are shown the sender has not sent any weather packets the latest 10 day(s).
| Time | Temp. | Humidity | Pressure | Rain* | Wind** | Luminosity | Snow |
|---|---|---|---|---|---|---|---|
| 1777926330 | 20° C | 75% | 1022 hPa | 0 mm | - | - | - |
| 1777926029 | 20° C | 73% | 1022 hPa | 0 mm | - | - | - |
| 1777925727 | 20° C | 74% | 1022.1 hPa | 0 mm | - | - | - |
| 1777925426 | 19.44° C | 74% | 1022.1 hPa | 0 mm | - | - | - |
| 1777925122 | 19.44° C | 73% | 1022.1 hPa | 0 mm | - | - | - |
| 1777924821 | 19.44° C | 73% | 1022.1 hPa | 0 mm | - | - | - |
| 1777924521 | 19.44° C | 73% | 1022.1 hPa | 0 mm | - | - | - |
| 1777924220 | 19.44° C | 74% | 1022.1 hPa | 0 mm | - | - | - |
| 1777923921 | 19.44° C | 74% | 1022.3 hPa | 0 mm | - | - | - |
| 1777923622 | 18.89° C | 75% | 1022.1 hPa | 0 mm | - | - | - |
| 1777923320 | 18.89° C | 76% | 1022.2 hPa | 0 mm | - | - | - |
| 1777923020 | 18.33° C | 76% | 1022 hPa | 0 mm | - | - | - |
| 1777922714 | 18.33° C | 78% | 1022.1 hPa | 0 mm | - | - | - |
| 1777922411 | 17.78° C | 78% | 1022.2 hPa | 0 mm | - | - | - |
| 1777922108 | 17.78° C | 78% | 1022.3 hPa | 0 mm | - | - | - |
| 1777921808 | 17.78° C | 77% | 1022.4 hPa | 0 mm | - | - | - |
| 1777921510 | 17.78° C | 78% | 1022.4 hPa | 0 mm | - | - | - |
| 1777921208 | 17.78° C | 78% | 1022.4 hPa | 0 mm | - | - | - |
| 1777920909 | 17.22° C | 80% | 1022.5 hPa | 0 mm | - | - | - |
| 1777920610 | 17.22° C | 80% | 1022.5 hPa | 0 mm | - | - | - |
| 1777920304 | 16.67° C | 79% | 1022.5 hPa | 0 mm | - | - | - |
| 1777920006 | 17.22° C | 79% | 1022.6 hPa | 0 mm | - | - | - |
| 1777919706 | 16.67° C | 81% | 1022.5 hPa | 0 mm | - | - | - |
| 1777919404 | 16.67° C | 80% | 1022.5 hPa | 0 mm | - | - | - |
| 1777919105 | 16.67° C | 81% | 1022.5 hPa | 0 mm | - | - | - |
* Rain latest hour (hover to see other rain measurements)
** Current wind speed in m/s (hover to see current wind gust speed)